Location: Bielsko-Biała
(49.8127°N, 19.0386°E)
Time: 22:14:43
(UTC+01:00)

ISS - Visible Passes

Search period start: 19 January 2018 00:00
Search period end: 29 January 2018 00:00
Orbit: 402 x 407 km, 51.6° (Epoch: 20 January)

Date Brightness Start Highest point End Pass type
(mag) Time Alt. Az. Time Alt. Az. Time Alt. Az.
25 Jan -1.3 18:13:03 10° SSE 18:13:26 11° SSE 18:13:26 11° SSE visible
26 Jan -1.5 18:55:03 10° SW 18:56:11 19° SSW 18:56:11 19° SSW visible
27 Jan -2.4 18:03:10 10° SSW 18:05:49 23° SE 18:06:11 22° SE visible
27 Jan -0.4 19:38:43 10° WSW 19:38:51 11° WSW 19:38:51 11° WSW visible
28 Jan -1.6 17:11:46 10° S 17:13:38 14° SE 17:15:31 10° ESE visible
28 Jan -2.8 18:46:22 10° WSW 18:48:46 43° SW 18:48:46 43° SW visible
